Regional Weather Roundup
Issued by NWS

Home | Current Version | Previous Version | Text Only | Print | Product List | Glossary Off
Versions: 1 2 3 4 5 6 7 8 9 10 11 12 13 14 15 16 17 18 19 20 21 22 23 24 25 26 27 28 29 30 31 32 33 34 35 36 37 38 39 40 41 42 43 44 45 46 47 48 49 50

000
ASUS43 KFSD 221010
RWRSD

WEATHER ROUNDUP FOR SOUTH DAKOTA
NATIONAL WEATHER SERVICE SIOUX FALLS SD
400 AM CST MON DEC 22 2014

NOTE: "FAIR" INDICATES FEW OR NO CLOUDS BELOW 12,000 FEET WITH NO
SIGNIFICANT WEATHER AND/OR OBSTRUCTIONS TO VISIBILITY.


SDZ001>005-009-010-012>017-221100-
NORTHWEST AND NORTH CENTRAL SOUTH DAKOTA

CITY           SKY/WX    TMP DP  RH WIND       PRES   REMARKS
BUFFALO          N/A     37  31  78 W24       29.43R
FAITH            N/A     38  32  79 NW22G33   29.46R
MOBRIDGE       CLOUDY    29  28  96 CALM      29.41S FOG
$$

SDZ012>016-024>037-041>051-057-063-072>074-221100-
SOUTHWEST AND SOUTH CENTRAL SOUTH DAKOTA

CITY           SKY/WX    TMP DP  RH WIND       PRES   REMARKS
RAPID CTY ARPT MOCLDY    41  27  57 NW29G37   29.51F
PIERRE         CLOUDY    32  31  96 MISG      29.43F FOG
CUSTER         MOCLDY    32  21  64 NW12G26   29.53R WCI  23
ELLSWORTH AFB  PTCLDY    40  29  65 NW29G38   29.51R
PHILIP         MOCLDY    38  34  85 W14       29.49S
PINE RIDGE     CLOUDY    34  31  88 W5        29.57F WCI  30
SPEARFISH      MOCLDY    36  27  69 W26G32    29.57F
WINNER         LGT RAIN  39  36  89 NW23G30   29.45S
$$

SDZ004>011-016>023-039-040-221100-
NORTHEAST SOUTH DAKOTA

CITY           SKY/WX    TMP DP  RH WIND       PRES   REMARKS
ABERDEEN       CLOUDY    36  34  92 S3        29.43F FOG
WATERTOWN      CLOUDY    36  35  96 S12       29.44F FOG
SISSETON         N/A     35  35 100 S9        29.46F WCI  28
$$

SDZ017-020-022-023-036>040-048>070-221100-
SOUTHEAST SOUTH DAKOTA

CITY           SKY/WX    TMP DP  RH WIND       PRES   REMARKS
SIOUX FALLS    LGT RAIN  40  39  97 S14       29.49F
HURON          CLOUDY    35  35 100 S8        29.44S FOG     WCI  29
CHAMBERLAIN    DRIZZLE   33  31  94 NW8       29.44F WCI  25
MITCHELL       LGT RAIN  38  37  97 S9        29.45F
YANKTON        CLOUDY    41  37  87 SE9       29.49F
$$

ABBREVIATIONS USED IN REMARKS
   TC - TEMPERATURE IN CELSIUS
  WCI - WIND CHILL INDEX
   HX - HEAT INDEX
  VSB - VISIBILITY



USA.gov is the U.S. government's official web portal to all federal, state and local government web resources and services.